RH
6 6 10 9 6 17 21 18 15 20 26 32 53 65 76 88 92 89 62 60 53 43 31 26 24 21 16 12 7 7 20 20 19 18 16 16 16 32 35 26 37 48 59 74
12 18 15 22 26 26 24 25 22 28 33 40 31 62 94 100 100 100 93 73 70 52 47 37 30 23 20 17 14 13 10 8 18 19 18 17 16 20 30 27 37 46 61 62
17 21 24 24 25 26 22 20 24 33 43 43 47 82 86 94 100 100 100 100 100 89 58 47 37 29 21 16 14 13 14 12 6 17 20 19 18 16 20 34 69 54 57 60
16 22 25 20 25 30 19 22 29 40 46 32 58 76 78 74 84 100 100 100 100 100 100 73 52 39 30 20 16 14 8 10 10 4 19 21 21 20 17 23 45 37 52 54
16 27 31 25 33 35 29 30 27 48 50 48 52 54 75 85 84 94 100 100 100 100 100 100 90 63 47 31 18 12 11 9 9 6 4 19 23 23 21 20 27 50 52 60
24 32 30 39 35 35 28 26 22 51 44 47 59 67 85 97 99 99 96 99 96 96 99 100 100 99 75 61 36 18 11 8 7 6 5 4 19 23 23 22 24 45 74 59
20 27 33 41 39 33 35 34 21 23 52 52 88 68 98 100 93 90 88 91 99 91 93 96 100 94 80 72 64 39 18 12 7 6 7 4 4 21 25 24 30 43 66 70
18 15 32 41 51 50 37 33 47 59 52 53 82 85 98 88 75 75 76 83 89 92 90 90 95 76 80 80 74 68 45 20 11 8 8 8 5 9 26 25 55 64 59 68
23 25 34 27 57 55 49 40 41 67 56 52 66 87 74 69 69 72 76 81 82 84 87 91 92 53 30 63 78 75 77 59 28 18 17 14 8 8 17 29 31 47 94 68
26 23 34 51 49 47 52 53 49 42 46 44 66 68 58 72 78 75 76 80 80 85 87 90 93 37 27 24 48 78 79 82 70 54 40 28 21 11 15 28 30 43 97 92
41 36 26 33 49 57 51 51 50 51 48 46 47 64 58 84 87 80 78 76 78 85 91 93 97 61 22 23 20 53 78 82 86 83 69 54 44 27 24 25 36 49 66 88
28 39 31 33 47 64 71 62 54 53 38 36 45 56 57 77 77 77 84 84 84 87 93 97 99 82 28 19 25 17 62 84 89 91 89 76 62 51 39 31 32 39 54 93
24 38 30 24 62 61 58 69 60 55 72 72 39 43 48 55 58 80 87 71 90 94 95 100 100 98 35 23 20 23 23 74 92 93 96 90 77 63 48 42 37 36 42 72
30 52 58 45 44 46 66 69 64 83 60 55 54 52 57 64 51 50 57 61 80 96 100 100 100 100 56 31 24 24 27 43 90 96 95 95 86 75 60 48 51 47 42 50
33 50 49 54 47 42 69 88 71 74 89 75 55 72 57 56 60 63 67 72 68 70 90 100 100 100 92 34 29 26 27 55 61 96 97 95 92 81 74 64 63 56 47 42
36 50 52 42 45 36 70 71 64 64 75 63 58 76 91 82 84 79 76 73 75 83 78 100 100 100 100 41 32 35 31 43 85 62 96 96 95 88 77 75 74 78 65 55
45 54 43 38 67 72 64 41 45 62 75 69 78 72 62 64 72 70 73 81 86 87 100 100 100 100 100 46 38 46 39 31 82 37 90 96 97 92 81 75 78 85 86 73
53 66 44 45 45 54 44 25 25 32 66 70 78 72 68 77 93 94 99 100 86 97 100 100 100 100 100 63 52 52 48 38 36 44 41 95 96 97 83 77 72 73 81 78
26 58 48 58 42 36 42 49 55 75 70 74 71 86 93 100 95 91 94 97 100 100 100 100 100 100 87 68 57 52 51 46 36 27 24 50 93 96 91 79 73 69 67 74
28 38 56 51 55 44 43 19 20 38 73 72 79 88 94 99 97 95 94 100 100 100 100 100 100 86 72 60 55 52 51 50 45 36 24 20 32 78 96 90 78 75 66 61
49 57 59 51 60 53 31 12 20 71 45 46 84 88 97 100 100 100 100 99 100 100 100 100 90 66 61 56 54 54 53 50 48 43 35 23 20 33 81 96 92 88 82 67
41 53 66 51 57 60 7 9 27 33 18 52 79 88 100 100 100 100 100 100 100 100 93 81 66 63 60 53 50 49 50 51 50 46 41 36 27 23 46 91 97 95 95 88
34 29 42 26 30 8 4 6 12 15 19 32 54 60 94 97 99 97 77 80 65 63 77 65 62 60 59 51 48 43 40 40 42 46 45 42 36 28 24 42 92 99 94 89
32 29 31 30 14 7 3 6 12 15 18 19 22 24 32 43 47 49 43 40 46 53 54 55 58 58 57 56 53 47 42 39 37 39 41 44 42 38 29 22 27 79 94 91
42 34 31 26 14 2 2 6 11 15 17 15 13 16 18 18 19 16 18 18 23 36 49 54 53 53 55 55 54 50 43 38 38 36 37 42 45 44 43 33 23 21 39 80
34 32 33 21 12 3 2 4 10 14 15 10 6 9 7 5 4 4 4 4 5 7 11 26 46 53 54 53 50 47 44 39 38 36 35 39 43 43 43 47 50 40 26 20
Wind_Speed
23 24 31 27 23 15 14 18 19 17 9 14 7 7 10 14 16 16 22 26 28 31 34 32 31 31 29 29 28 33 38 36 35 37 36 39 37 37 35 30 22 20 19 19
16 29 20 15 12 15 14 14 16 16 11 17 7 4 7 13 16 17 19 19 21 28 30 31 28 29 31 32 33 34 32 34 35 35 36 38 39 40 41 38 30 26 22 21
23 19 17 17 16 19 14 18 23 22 18 11 6 3 5 11 15 16 14 13 16 17 19 24 23 22 25 30 31 33 36 35 34 34 36 37 38 42 43 44 32 31 28 26
15 20 19 17 19 18 16 22 25 19 9 4 4 4 9 11 15 19 20 19 16 18 18 14 18 20 18 23 31 34 33 35 36 32 36 37 37 37 46 47 42 35 34 28
12 13 19 20 21 18 20 27 21 9 4 3 2 6 9 12 14 19 20 19 21 18 18 19 17 15 13 14 19 28 33 36 37 35 32 38 37 37 40 46 48 37 35 35
14 14 15 21 19 15 24 27 10 5 5 3 9 9 11 13 17 18 19 18 20 21 21 19 18 17 15 15 17 21 27 32 35 35 34 34 37 37 37 40 46 46 33 38
9 12 18 23 19 16 23 26 12 3 2 7 5 3 8 11 14 16 19 20 20 19 20 21 20 18 17 13 14 19 24 30 31 33 32 33 35 38 36 35 42 46 44 32
14 7 21 19 14 17 17 19 12 10 9 4 6 4 1 14 14 16 17 18 19 20 20 21 22 21 19 17 14 15 21 27 31 31 32 30 34 37 37 36 34 44 48 39
14 6 13 17 10 15 16 18 11 10 7 9 4 4 4 12 16 17 19 19 21 21 21 22 23 22 21 19 17 14 16 23 28 30 30 30 31 36 39 37 38 42 43 46
12 6 11 9 11 13 13 11 15 13 6 11 3 2 9 15 17 19 20 21 21 22 23 23 24 23 22 21 20 17 16 17 24 28 29 29 28 33 36 37 36 40 36 36
10 6 13 7 9 12 15 12 13 9 4 7 7 4 10 12 16 18 19 20 22 23 24 24 24 24 22 21 20 18 17 17 18 22 24 28 27 30 33 38 37 38 39 47
16 3 14 5 7 11 9 11 10 13 14 9 9 3 7 13 16 17 19 20 21 22 24 24 24 25 23 21 19 18 17 17 17 16 19 22 26 28 32 36 38 37 39 42
14 8 12 2 2 9 13 10 9 10 8 7 11 5 11 13 18 16 18 21 22 22 24 25 25 25 24 22 20 18 17 18 16 15 14 16 19 27 31 36 38 40 36 42
13 6 4 8 13 16 14 12 9 8 12 12 13 15 16 16 20 20 20 23 25 25 25 27 26 26 24 22 20 17 15 17 17 13 12 12 13 21 28 33 36 38 37 36
11 7 10 11 13 13 14 10 9 11 13 11 17 19 18 19 21 22 24 26 29 32 32 30 27 26 25 22 20 17 13 15 18 14 10 11 10 14 23 29 32 34 34 37
11 8 13 14 8 15 8 9 11 12 14 18 19 21 15 21 20 25 27 27 30 33 35 31 26 25 25 23 21 18 14 11 15 17 10 9 9 10 15 24 29 30 32 33
8 8 12 5 11 11 5 6 9 12 13 17 19 21 22 22 21 25 29 25 33 34 32 27 25 26 26 23 20 18 15 12 11 15 13 9 9 10 10 14 22 28 31 33
7 8 7 10 11 3 5 11 10 14 14 15 22 20 19 22 23 23 22 21 33 32 29 26 26 27 26 22 18 16 14 12 10 12 13 11 10 8 9 9 11 18 29 34
9 6 7 5 13 15 11 7 6 11 15 12 11 14 18 19 18 17 17 24 27 26 26 25 25 26 23 19 16 14 13 12 11 10 12 11 10 8 8 8 7 7 17 31
10 8 7 7 6 4 5 13 14 12 8 4 12 15 17 19 18 19 24 25 25 25 24 25 25 22 19 16 15 14 12 11 11 9 10 11 10 9 8 9 8 8 7 18
5 8 12 11 9 12 12 15 11 2 7 15 13 15 17 19 19 23 24 24 23 23 23 23 20 18 16 14 13 14 13 12 11 11 10 10 9 8 8 8 9 10 11 9
7 5 6 5 7 8 14 17 7 13 17 16 15 15 17 19 19 21 23 23 23 23 22 20 16 15 16 14 12 13 14 13 12 11 11 11 10 8 8 8 8 9 11 12
8 11 9 9 9 24 19 17 17 17 17 16 16 16 16 16 19 21 25 25 25 23 20 18 17 14 14 14 14 13 13 14 14 13 12 11 11 10 8 10 10 9 9 10
20 18 21 19 15 18 18 16 15 16 15 16 16 17 19 21 23 24 25 24 23 22 21 19 15 14 14 14 14 14 14 13 13 14 13 12 11 10 9 10 12 13 11 12
21 23 21 23 18 17 14 13 14 14 15 15 15 17 20 22 23 24 23 23 22 21 20 19 17 15 15 15 14 14 15 13 12 12 13 12 11 10 10 9 10 13 15 15
17 17 18 18 17 16 15 12 13 13 14 13 14 16 18 20 21 23 24 24 23 20 18 17 16 15 14 14 15 14 13 13 12 11 11 10 10 10 11 10 9 11 14 17
Wind_Direction
14 358 19 9 6 356 330 319 316 314 303 335 306 298 315 335 341 325 298 295 284 278 273 268 263 261 259 258 257 253 250 252 251 253 247 242 238 236 239 244 231 233 245 257
7 33 21 13 13 6 345 339 331 319 292 308 297 295 343 342 349 349 334 318 307 286 277 273 268 261 258 255 255 258 259 257 252 249 251 248 241 237 237 242 235 237 236 245
42 25 21 16 1 1 353 341 328 311 300 293 258 150 26 10 360 2 353 349 347 331 288 278 271 261 255 255 253 253 256 259 259 248 248 249 247 238 238 239 239 237 237 240
22 16 24 13 3 353 336 333 325 314 292 266 250 142 29 8 7 6 6 1 355 353 350 314 285 266 255 248 251 252 253 255 261 258 246 246 247 246 238 239 238 238 241 237
19 21 19 12 2 352 332 329 320 309 258 192 2 249 41 10 358 357 357 357 356 357 356 351 338 312 284 259 244 244 249 252 255 260 254 246 246 246 244 241 238 235 237 240
36 15 14 7 2 354 344 339 284 247 183 178 4 278 61 12 3 357 356 356 356 354 354 354 348 337 319 292 267 253 249 250 252 256 256 251 246 246 247 242 239 238 235 238
7 26 6 2 356 359 1 5 344 290 306 32 16 22 38 7 4 357 353 352 355 356 355 356 354 343 333 319 283 264 254 252 252 253 255 249 248 244 244 244 240 238 233 238
7 349 5 0 7 350 360 7 13 309 343 2 71 34 156 9 357 350 349 349 349 351 352 354 354 351 343 333 318 273 255 251 252 253 253 251 245 244 243 242 235 240 239 235
3 15 7 6 9 13 356 7 336 305 280 283 77 21 312 345 344 344 346 347 347 347 348 349 349 348 349 341 334 311 267 250 251 250 251 250 245 243 240 240 235 235 241 237
5 351 356 350 27 8 1 360 355 342 326 319 105 220 353 345 347 347 348 346 344 345 345 346 347 340 339 342 336 330 305 277 253 254 252 249 245 242 241 240 238 234 233 242
14 13 348 350 2 9 9 359 356 312 355 318 322 42 4 340 344 341 343 346 343 342 342 342 342 337 332 331 335 328 320 298 278 261 257 250 245 240 240 236 237 232 235 236
4 345 336 321 347 13 6 357 346 345 341 327 282 313 349 340 342 335 337 342 342 341 339 337 340 336 329 326 327 326 324 315 293 280 263 257 247 239 238 237 235 236 232 238
358 341 332 356 284 351 336 337 328 328 289 298 300 3 332 327 335 337 334 339 343 341 338 338 337 338 331 324 323 322 321 320 309 292 280 264 253 244 237 238 236 239 234 233
357 333 327 323 306 316 312 313 309 296 294 316 293 306 307 311 328 336 334 334 342 338 336 336 338 337 334 327 322 314 311 315 316 311 295 284 264 249 241 240 239 239 235 228
349 313 315 301 307 310 293 289 294 284 280 271 300 302 313 315 309 324 332 332 335 335 336 336 335 336 335 331 323 319 304 307 313 315 316 296 291 261 245 240 243 240 240 234
329 310 315 315 287 321 286 286 288 287 274 282 290 299 310 313 306 306 324 326 328 332 333 334 333 335 334 335 328 323 312 292 302 311 323 319 309 299 256 242 243 243 241 237
305 316 325 304 318 326 288 277 281 282 281 288 286 296 311 309 298 305 321 324 328 330 330 330 334 333 332 334 332 330 325 313 299 306 315 327 327 317 298 255 244 243 242 240
298 307 307 296 328 268 272 305 297 300 290 285 294 306 310 310 313 319 316 322 319 328 331 331 329 330 331 334 333 335 331 321 307 304 305 317 329 330 325 300 260 253 245 243
307 288 299 282 304 285 288 274 299 298 306 295 298 301 315 317 316 321 319 318 322 324 323 324 328 329 331 336 336 339 337 330 325 310 298 295 313 331 346 334 316 283 250 244
297 279 263 290 295 271 261 311 334 333 313 306 323 318 319 316 320 314 320 325 323 319 324 327 331 334 335 343 340 344 345 342 339 329 315 293 287 311 338 344 347 340 303 244
274 259 253 268 263 271 275 318 340 310 307 310 318 316 317 309 311 319 320 323 318 323 325 329 338 336 337 346 348 351 350 349 351 348 336 319 295 287 305 327 342 351 342 315
253 247 245 226 247 272 310 315 291 301 317 318 313 311 311 315 318 320 318 321 325 326 329 333 341 336 336 344 351 351 353 351 355 359 353 342 328 296 287 293 314 339 341 338
271 274 260 258 272 292 295 303 307 317 322 319 316 317 313 317 318 320 326 327 329 329 328 331 334 333 331 339 343 346 350 350 353 356 359 356 344 329 291 279 288 301 313 319
296 289 285 293 310 305 294 298 307 312 321 323 325 331 336 335 333 332 330 329 330 332 330 327 326 326 325 329 332 335 341 345 348 348 351 356 357 346 328 295 282 286 291 297
291 291 300 299 308 307 289 292 300 306 316 324 331 344 348 346 342 338 338 340 337 333 331 330 329 330 326 323 323 325 327 332 341 343 344 351 354 352 344 329 302 285 286 286
310 307 300 297 310 311 295 290 298 302 312 321 341 348 350 353 350 352 352 354 353 348 341 333 331 332 332 330 328 328 326 326 332 338 338 340 347 352 350 345 335 317 305 298